Flag for South Korea Weather past 2 weeks in Cheongju, South Korea

Now
32 °F

Passing clouds.


Feels Like: 32 °F
Forecast: 27 / 44 °F
Wind: 2 mph from Northeast

Location: Chongju Ab

Current Time: Dec 28, 2014 at 6:31:17 PM

Latest Report: Dec 28, 2014 at 6:00 PM


Visibility: 5 mi

Pressure: 30.12 "Hg

Humidity: 64%

Dew point: 21 °F

Location of CheongjuLocation

Historic Weather in Cheongju — Graph

°F

Cheongju temperature yesterday

Maximum temperature yesterday: 39 °F (at 4:00 PM)
Minimum temperature yesterday: 16 °F (at 2:00 AM)
Average temperature yesterday: 25 °F

Past Weeks' High & Low Weather Summary

 TemperatureHumidityPressure
High41 °F (Dec 24, 3:00 PM)100% (Dec 24, 6:00 AM)30.59 "Hg (Dec 24, 6:00 AM)
Low9 °F (Dec 14, 6:00 AM)29% (Dec 18, 3:00 PM)30.04 "Hg (Dec 16, 6:00 AM)
Average25 °F68%30.31 "Hg
* Reported Dec 13 5:00 PM — Dec 28 5:00 PM, Cheongju, Weather by CustomWeather, © 2014

Note: Actual official high and low records may vary slightly from our data, if they occured in-between our weather recording intervals... More about our weather records

Advertising

Cheongju weather history for previous 24 hours

 ConditionsComfort  
Time TempWeatherWind HumidityBarometerVisibility
5:00 PM
Dec 28
36 °FPartly sunny.1 mph56%30.12 "Hg6 mi
4:00 PM36 °FPartly sunny.2 mph56%30.15 "Hg6 mi
3:00 PM36 °FPartly sunny.1 mph52%30.15 "Hg6 mi
2:00 PM36 °FPartly sunny.2 mph48%30.15 "Hg6 mi
1:00 PM34 °FClear.1 mph60%30.15 "Hg5 mi
12:00 PM32 °FClear.3 mph64%30.21 "Hg5 mi
11:00 AM27 °FScattered clouds.1 mph74%30.24 "Hg5 mi
10:00 AM23 °FScattered clouds.1 mph86%30.27 "Hg5 mi
9:00 AM18 °FClear.2 mph86%30.30 "Hg5 mi
8:00 AM14 °FClear.1 mph92%30.30 "Hg4 mi
7:00 AM14 °FClear.1 mph85%30.30 "Hg4 mi
6:00 AM18 °FClear.1 mph86%30.30 "Hg4 mi
5:00 AM18 °FClear.3 mph86%30.30 "Hg4 mi
2:00 AM18 °FClear.2 mph93%30.33 "Hg5 mi
1:00 AM18 °FClear.3 mph86%30.36 "Hg5 mi
11:00 PM
Dec 27
19 °FClear.1 mph79%30.39 "Hg5 mi
10:00 PM23 °FClear.1 mph74%30.36 "Hg5 mi
9:00 PM25 °FClear.1 mph80%30.36 "Hg5 mi
8:00 PM25 °FClear.5 mph74%30.39 "Hg5 mi
7:00 PM28 °FClear.2 mph64%30.39 "Hg10 mi
6:00 PM27 °FClear.2 mph69%30.39 "Hg10 mi
Weather by CustomWeather, © 2014

See weather overviewHow to use our weather pages